Home > Weather > Kfar Saba > Past weeks

Flag for Israel Weather for the Past 2 Weeks in Kfar Saba, Israel

Now
68 °F

Passing clouds.


Feels Like: 68 °F
Forecast: 68 / 84 °F
Wind: 12 mph from Southwest

Location: Dov Airport

Current Time: May 2, 2016 at 7:00:01 AM

Latest Report: May 2, 2016 at 5:50 AM


Visibility: N/A

Pressure: 29.83 "Hg

Humidity: 83%

Dew Point: 63 °F

Location of Kfar SabaLocation

Historic Weather in Kfar Saba — Graph

°F

Kfar Saba Temperature Yesterday

Maximum temperature yesterday: 86 °F (at 8:50 AM)
Minimum temperature yesterday: 70 °F (at 5:50 AM)
Average temperature yesterday: 75 °F

High & Low Weather Summary for the Past Weeks

 TemperatureHumidityPressure
High95 °F (Apr 26, 10:50 AM)94% (Apr 23, 6:00 AM)30.09 "Hg (Apr 23, 6:00 AM)
Low59 °F (Apr 18, 5:00 AM)16% (Apr 26, 10:50 AM)29.56 "Hg (Apr 25, 5:00 AM)
Average72 °F67%29.90 "Hg
* Reported Apr 17 4:50 AM — May 1 11:50 PM, Kfar Saba, Weather by CustomWeather, © 2016

Note: Actual official high and low records may vary slightly from our data, if they occured in-between our weather recording intervals... More about our weather records

Advertising

Kfar Saba Weather History for the Previous 24 Hours

Scroll right to see more
 ConditionsComfort  
Time TempWeatherWind HumidityBarometerVisibility
11:50 PM
Sun, May 1
72 °FPassing clouds.14 mph78%29.86 "HgN/A
10:50 PM72 °FPassing clouds.14 mph78%29.86 "HgN/A
9:50 PM72 °FPassing clouds.14 mph78%29.83 "HgN/A
8:50 PM70 °FPassing clouds.13 mph83%29.83 "HgN/A
7:50 PM70 °FPassing clouds.12 mph83%29.80 "HgN/A
6:50 PM72 °FScattered clouds.9 mph78%29.80 "Hg6 mi
5:50 PM73 °FScattered clouds.10 mph74%29.80 "Hg5 mi
4:50 PM73 °FScattered clouds.10 mph74%29.77 "Hg6 mi
3:50 PM75 °FScattered clouds.12 mph69%29.80 "Hg4 mi
2:50 PM73 °FPartly sunny.12 mph78%29.80 "Hg4 mi
1:50 PM77 °FPartly sunny.12 mph69%29.80 "Hg4 mi
12:50 PM77 °FScattered clouds.14 mph69%29.80 "Hg5 mi
11:50 AM79 °FSunny.15 mph58%29.77 "Hg10 mi
10:50 AM84 °FSunny.10 mph33%29.77 "Hg10 mi
9:50 AM82 °FSunny.3 mph37%29.74 "Hg10 mi
8:50 AM86 °FSunny.2 mph27%29.74 "Hg10 mi
7:50 AM81 °FSunny.3 mph26%29.71 "Hg10 mi
Weather by CustomWeather, © 2016

See weather overviewHow to use our weather pages